Погода Нижний Чир

Погода Нижний Чир : погода сейчас, прогноз погоды и архив. Всё, что Вы хотите узнать о погоде Нижний Чир!

Хотите узнать прогноз погоды Нижний Чир? Тогда Вам сюда: Погода Нижний Чир

Поиск расширенной информации на нашем сайте:

Другие новости

Новости СМИ2

Главная страница сайта

Новости сайта

02.10.2013

Напоминаем, что на нашем новом сайте вы можете получить высокодетализированные прогнозы погоды по пунктам России, СНГ и мира (включающие важные для авиации метеовеличины, такие как направление и скорость ветра, видимость, явления погоды, количество и форма облачности, нижняя и верхняя граница облачности), а также ознакомиться с разнообразными материалами по авиационной метеорологии и подборкой полезных ссылок на эту тему.

Сайт Метеоцентр.Азия посвящён разработке технологий оптимизации авиаметеорологического обслуживания, включая проектирование и перспективное создание нескольких автоматизированных авиаметеорологических систем:
- система выпуска высокодетальных прогностических карт явлений погоды для нижнего воздушного пространства по России и ближнему зарубежью;
- система верификации прогнозов TAF (выпускаемых синоптиками официальных АМСГ РФ и ближнего зарубежья) и AUTOTAF (выпускаемых сайтом Метеоцентр.Азия) - выявление ошибок, онлайн-сопоставление с фактической погодой METAR, автоматическое внесение коррективов в прогнозы при резком отклонении фактической погоды от прогноза, подсчёт оправдываемости прогнозов по элементам и в целом;
- система обработки, анализа и отображения авиаметеорологической информации для применения провайдерами метеорологической информации.


Погода Нижний Чир - сегодня

Время (UTC), дата Ветер
(°,м/с) 
Видим.   Явления Облачность Т
(°С)
Тd
(°С)
f(%) Тe
(°С)
Pmin
(гПа)
dP
(гПа)
Po
(мм)
O2
(г/м3)
Тmin Tmax R s Состояние
почвы
09 25.06.17 130 (ЮВ) 20000 м    8/6 600 м средняя, верхняя 
[Cu med, cong|Ac trans|Ci fib]
+21.7 +10.1 48 +23  1014.2  0.5  754  280           
12 25.06.17 210 (ЮЗ) 6{10}  20000 м    8/8 600 м 
[Cu med, cong]
+24.5 +8.9 37 +25  1013.9  0.1  754  277           
15 25.06.17 210 (ЮЗ) 4{10}  20000 м    9/8 600 м средняя 
[Cu Sc|Ac trans]
+23.5 +8.2 38 +24  1014.4  0.4  754  279    +24.7       
18 25.06.17 210 (ЮЗ) 20000 м    10/10 600 м 
[Sc]
+21.1 +11.5 54 +24  1015.3  0.8  755  280           
21 25.06.17 220 (ЮЗ) 20000 м    10/10 600 м 
[Sc]
+19.7 +12.5 63 +24  1015.8  0.5  755  282           
00 26.06.17 230 (ЮЗ) 20000 м    9/9 600 м 
[Sc]
+18.9 +14 73 +26  1015.7  0.1  755  282           
03 26.06.17 220 (ЮЗ) 20000 м    8/0 средняя 
[Ac trans]
+18.7 +13.3 71 +25  1016  0.3  756  282  +17.5        сухая 
06 26.06.17 250 (З) 20000 м    3/0 верхняя 
[Ci fib]
+24.2 +16.4 62 +35  1016.3  0.4  756  276           
09 26.06.17 170 (Ю) 20000 м    10/4 1000 м верхняя 
[Cu med, cong|Ci]
+26.2 +16.7 56 +38  1015.7  -0.5  755  274           
12 26.06.17 160 (Ю) 6{10}  20000 м    4/1 1000 м верхняя 
[Cu med, cong|Ci fib]
+27.8 +15 46 +36  1015.1  -0.6  755  273           
15 26.06.17 180 (Ю) 20000 м    3/1 600 м верхняя 
[Sc diur, vesp|Ci fib]
+27 +15.2 48 +36  1014.7  -0.4  755  274    +27.9       
18 26.06.17 210 (ЮЗ) 20000 м    1/0 верхняя 
[Ci fib]
+23.3 +13.4 54 +29  1014.6  -0.2  755  278           
21 26.06.17 220 (ЮЗ) 20000 м    ясно 
+22 +14.9 64 +30  1014.7  0.1  755  278           
00 27.06.17 180 (Ю) 20000 м    ясно 
+21.8 +14.3 62 +29  1014.8  -0.1  755  279           
03 27.06.17 200 (Ю) 20000 м    ясно 
+21.3 +14.2 64 +28  1014.7  -0.2  755  279  +20.1        сухая 
06 27.06.17 190 (Ю) 7-10{10}  20000 м    ясно 
+25 +12.9 47 +30  1014.9  0.2  755  276           
09 27.06.17 210 (ЮЗ) 5{11}  20000 м    3/1 1000 м верхняя 
[Cu hum|Ci fib]
+30 +9 27 +30  1014.2  -0.5  754  272           
12 27.06.17 150 (ЮВ) 20000 м    ясно 
+31.5 +5.4 19 +32  1012.6  -1.6  753  271           
15 27.06.17 210 (ЮЗ) 20000 м    3/0 верхняя 
[Ci fib]
+30.8 +6.6 22 +31  1011.7  -0.9  753  271    +32.1       
18 27.06.17 230 (ЮЗ) 20000 м    3/0 верхняя 
[Ci fib]
+25.5 +7.5 32 +26  1012.4  0.6  753  276           
21 27.06.17 170 (Ю) 20000 м    ясно 
+23.4 +8.5 39 +23  1012.2  -0.3  753  278           
00 28.06.17 260 (З) 20000 м    1/0 верхняя 
[Ci fib]
+19.8 +14.4 71 +29  1012.1  -0.2  753  280           
03 28.06.17 050 (СВ) 20000 м    3/0 верхняя 
[Ci fib]
+22.7 +17 70 +35  1012.6  0.6  753  276  +19.3        сухая 
06 28.06.17 130 (ЮВ) 20000 м    3/0 верхняя 
[Ci fib]
+26.8 +14.6 47 +35  1012.5  753  273           
09 28.06.17 080 (В) 20000 м    5/4 1000 м верхняя 
[Cu med, cong|Ci fib]
+30.3 +11.6 32 +34  1012.3  0.1  753  271           
Время (UTC), дата Ветер
(°,м/с) 
Видим.   Явления Облачность Т
(°С)
Тd
(°С)
f(%) Тe
(°С)
Pmin
(гПа)
dP
(гПа)
Po
(мм)
O2
(г/м3)
Тmin Tmax R s Состояние
почвы

Для получения пояснительной информации подведите курсор к названию столбца.

ПОГОДА Нижний Чир - архив

Всё, что Вы хотите узнать о погоде Нижний Чир - удобно и подробно!

Выберите нужную дату (начиная с 1 января 2015* года) и нажмите кнопку "Найти".
Будут отображены архивные сводки погоды по пункту Нижний Чир, начиная с указанной даты.


Отображать данные в формате CSV (для использования в таблицах Excel)


Внимание! Наш архив погоды предназначен исключительно для личного некоммерческого использования в познавательных целях. Если Вам необходимы официальные справки о состоянии погоды (для производственных, юридических, коммерческих и т.п. целей), обращайтесь в органы Росгидромета.

*Примечание: данная дата относится к архиву по метеостанциям СССР (Россия, СНГ, Балтия).
Архив по метеостанциям Зарубежной Европы и Азии (кроме Китая) хранится 10 дней, по другим регионам земного шара (Китай, Африка, Америка, Австралия, Океания) - 1 день.

Нижний Чир - район местоположения метеостанции


Название, широта, долгота, высота метеостанции:
Нижний Чир 48.3°ш. 43.1°д. 68 м над ур. моря [Российская Федерация]

Дополнительная информация

В oтличие oт бoльшинства пoгoдных сайтoв мы публикуем пoдрoбную метеoинфoрмацию в детальнoм прoфессиoнальнoм фoрмате.

Характеристики температуры и влажнoсти вoздуха измеряются на высoте 2 м в тени вдали oт зданий и деревьев.
Скoрoсть ветра измеряется на высoте 10 м (на урoвне рoста челoвека скoрoсть ветра ниже в 1.5-2 раза). Если метеoстанция нахoдится в гoрoде или в лесу, тo скoрoсть ветра занижена на 2-4 м/с пo сравнению с oткрытым местoм. Скoрoсть ветра над акватoриями крупных рек и oзёр, а также на вершинах хoлмoв на 2-5 м/с выше, чем в oбычных услoвиях.
Атмoсфернoе давление в разных тoчках местнoсти мoжет значительнo oтличаться oт давления на метеoстанции, в зависимoсти oт услoвий рельефа (при пoдъёме на 10 м давление пoнижается примернo на 1 мм рт.ст.).